SM7SJR-13 Weather Reports


time (UTC)temp
C
wind
direction
speed
KPH
gust
KPH
rain 1hr
cm
rain 24hr
cm
rain mn
cm
humidity
%
barometer
mb
20260506091503 11 76 14.5 20.9 0.00 0.00 0.00 45 1011.8
20260506084504 11 55 14.5 19.3 0.00 0.00 0.00 46 1011.9
20260506083003 11 62 8.0 19.3 0.00 0.00 0.00 47 1011.8
20260506081503 10 71 9.7 19.3 0.00 0.00 0.00 50 1011.8
20260506073004 10 58 8.0 19.3 0.00 0.00 0.00 50 1011.9
20260506071503 11 69 11.3 20.9 0.00 0.00 0.00 50 1011.7
20260506044504 4 9 0.0 0.0 0.00 0.00 0.00 96 1011.5
20260506041503 2 9 0.0 4.8 0.00 0.00 0.00 95 1011.3
20260506040004 3 12 3.2 9.7 0.00 0.00 0.00 96 1011.2
20260506034504 2 345 4.8 8.0 0.00 0.00 0.00 96 1011.2
20260506033005 2 342 3.2 4.8 0.00 0.00 0.00 95 1011.2
20260506031504 2 342 0.0 8.0 0.00 0.00 0.00 95 1011.2
20260506030003 2 343 0.0 4.8 0.00 0.00 0.00 96 1011.1
20260506024503 2 342 0.0 0.0 0.00 0.00 0.00 96 1011.1
20260506023005 1 343 0.0 0.0 0.00 0.00 0.00 96 1011.1
20260506021504 1 343 0.0 0.0 0.00 0.00 0.00 95 1011.0
20260506020004 0 343 0.0 0.0 0.00 0.00 0.00 95 1011.0
20260506013004 0 343 0.0 4.8 0.00 0.00 0.00 94 1010.7
20260506011504 0 342 3.2 8.0 0.00 0.00 0.00 94 1010.5
20260506010004 0 342 3.2 9.7 0.00 0.00 0.00 94 1010.5
20260506004504 0 344 4.8 8.0 0.00 0.00 0.00 94 1010.0
20260506003004 0 344 0.0 8.0 0.00 0.00 0.00 94 1010.0
20260506001503 1 342 4.8 9.7 0.00 0.00 0.00 94 1010.0
20260506000004 1 343 4.8 9.7 0.00 0.00 0.00 93 1010.0
20260505234503 1 341 3.2 8.0 0.00 0.00 0.00 93 1010.0
20260505233004 2 343 4.8 8.0 0.00 0.00 0.00 94 1010.0
20260505231503 1 348 3.2 9.7 0.00 0.00 0.00 93 1009.8
20260505223004 2 347 3.2 11.3 0.00 0.00 0.00 92 1010.0
20260505221504 3 354 4.8 14.5 0.00 0.00 0.00 94 1009.8
20260505214503 2 27 0.0 0.0 0.00 0.00 0.00 92 1009.2
20260505213004 2 27 0.0 0.0 0.00 0.00 0.00 92 1009.2
20260505211504 2 27 3.2 8.0 0.00 0.00 0.00 91 1009.3
20260505210003 2 43 3.2 8.0 0.00 0.00 0.00 90 1009.0
20260505204504 3 58 4.8 8.0 0.00 0.00 0.00 90 1008.8
20260505203004 3 70 3.2 4.8 0.00 0.00 0.00 89 1008.8
20260505201504 3 71 3.2 8.0 0.00 0.00 0.00 88 1008.8
20260505194504 5 98 0.0 0.0 0.00 0.00 0.00 85 1008.3
20260505193004 6 98 0.0 0.0 0.00 0.00 0.00 84 1008.3
20260505191504 6 98 0.0 0.0 0.00 0.00 0.00 81 1008.2
20260505184504 10 98 1.6 8.0 0.00 0.00 0.00 71 1008.1
20260505181503 11 110 3.2 12.9 0.00 0.00 0.00 65 1007.9
20260505180004 11 103 1.6 11.3 0.00 0.00 0.00 63 1007.5
20260505174504 12 109 1.6 16.1 0.00 0.00 0.00 61 1007.5
20260505173003 12 100 8.0 19.3 0.00 0.00 0.00 59 1007.5
20260505171505 12 101 9.7 16.1 0.00 0.00 0.00 57 1007.3
20260505170003 13 76 9.7 19.3 0.00 0.00 0.00 52 1007.3
20260505164504 13 79 11.3 20.9 0.00 0.00 0.00 50 1007.3
20260505163004 14 63 9.7 19.3 0.00 0.00 0.00 44 1007.3
20260505161503 14 61 4.8 19.3 0.00 0.00 0.00 36 1007.3
20260505153004 17 84 4.8 14.5 0.00 0.00 0.00 27 1007.1
20260505151503 17 302 6.4 22.5 0.00 0.00 0.00 25 1007.1
20260505124505 17 285 9.7 22.5 0.00 0.00 0.00 32 1007.2
20260505123004 17 322 11.3 20.9 0.00 0.00 0.00 36 1007.2
20260505121503 16 307 3.2 22.5 0.00 0.00 0.00 36 1007.2
20260505114503 17 266 6.4 25.7 0.00 0.00 0.00 38 1007.1
20260505111503 17 242 16.1 27.4 0.00 0.00 0.00 40 1007.2
20260505101504 16 257 8.0 25.7 0.00 0.00 0.00 43 1007.2
20260505094505 15 247 17.7 29.0 0.00 0.00 0.00 44 1007.3
20260505093004 16 291 9.7 24.1 0.00 0.00 0.00 45 1007.3